Weather History for Page, AZ

Change the Weather History Date:

Saturday, February 23, 2013

  Actual Average Record
Temperature  
Mean Temperature 40 °F -  
Max Temperature 51 °F 53 °F 68 °F (1972)
Min Temperature 30 °F 32 °F 20 °F (1960)
Degree Days  
Heating Degree Days 24    
Moisture  
Dew Point 14 °F    
Average Humidity 39    
Maximum Humidity 67    
Minimum Humidity 21    
Precipitation  
Precipitation 0.00 in - - ()
Sea Level Pressure  
Sea Level Pressure 29.90 in    
Wind  
Wind Speed 5 mph (NW)    
Max Wind Speed 23 mph    
Max Gust Speed 39 mph    
Visibility 10 miles    
Events Snow    
Averages and records for this station are not official NWS values.
T = Trace of Precipitation, MM = Missing Value Source: NWS Daily Summary

Daily Weather History Graph

Daily Weather History Graph

Search for Another Location

Airport:

Trip Planner

Search our weather history database for the weather conditions in past years. The results will help you decide how hot, cold, wet, or windy it might be!

Date:

Astronomy

Feb. 23, 2013 Rise Set
Actual Time 7:04 AM MST 6:14 PM MST
Civil Twilight 6:37 AM MST 6:40 PM MST
Nautical Twilight 6:07 AM MST 7:10 PM MST
Astronomical Twilight 5:37 AM MST 7:40 PM MST
Moon 4:29 PM MST (2/23) 5:26 AM MST (2/23)
Length of Visible Light 12h 02m
Length of Day
11h 10m
Waxing Gibbous, 95% of the Moon is Illuminated
Feb 23
Waxing Gibbous
Feb 25
Full
Mar 4
Last Quarter
Mar 11
New
Mar 19
First Quarter

Hourly Weather History & Observations

Time (MST) Temp. Windchill Dew Point Humidity Pressure Visibility Wind Dir Wind Speed Gust Speed Precip Events Conditions
12:53 AM 33.1 °F - 10.0 °F 38% 30.06 in 10.0 mi Calm Calm - N/A   Clear
1:53 AM 34.0 °F - 9.0 °F 35% 30.04 in 10.0 mi Calm Calm - N/A   Clear
2:53 AM 30.9 °F 27.5 °F 10.9 °F 43% 30.03 in 10.0 mi SE 3.5 mph - N/A   Clear
3:53 AM 33.1 °F 27.7 °F 10.0 °F 38% 30.00 in 10.0 mi East 5.8 mph - N/A   Clear
4:53 AM 30.0 °F 22.4 °F 12.0 °F 47% 29.98 in 10.0 mi SE 8.1 mph - N/A   Clear
5:53 AM 30.9 °F 26.2 °F 12.9 °F 47% 29.99 in 10.0 mi South 4.6 mph - N/A   Clear
6:53 AM 30.9 °F - 12.9 °F 47% 29.97 in 10.0 mi Calm Calm - N/A   Clear
7:53 AM 33.1 °F - 12.9 °F 43% 29.96 in 10.0 mi Calm Calm - N/A   Mostly Cloudy
8:53 AM 35.1 °F - 12.9 °F 40% 29.97 in 10.0 mi Calm Calm - N/A   Partly Cloudy
9:53 AM 37.9 °F - 14.0 °F 38% 29.93 in 10.0 mi Calm Calm - N/A   Clear
10:53 AM 39.9 °F 37.8 °F 15.1 °F 36% 29.90 in 10.0 mi North 3.5 mph - N/A   Clear
11:53 AM 44.1 °F 40.1 °F 15.1 °F 31% 29.83 in 10.0 mi North 6.9 mph - N/A   Clear
12:53 PM 46.4 °F 41.9 °F 15.8 °F 29% 29.78 in 10.0 mi North 9.2 mph - N/A   Clear
1:53 PM 48.0 °F - 15.1 °F 27% 29.74 in 10.0 mi Variable 5.8 mph - N/A   Mostly Cloudy
2:53 PM 48.0 °F - 15.1 °F 27% 29.71 in 10.0 mi NNE 3.5 mph - N/A   Overcast
3:53 PM 48.9 °F - 17.1 °F 28% 29.71 in 10.0 mi West 18.4 mph 36.8 mph N/A   Mostly Cloudy
4:40 PM 42.8 °F 34.5 °F 21.2 °F 42% 29.80 in 9.0 mi NNW 18.4 mph 36.8 mph N/A   Mostly Cloudy
4:53 PM 37.0 °F 25.9 °F 27.0 °F 67% 29.84 in 4.0 mi NW 23.0 mph 39.1 mph 0.00 in Snow Light Snow
5:53 PM 37.0 °F 31.0 °F 26.1 °F 65% 29.83 in 10.0 mi SSW 8.1 mph 16.1 mph 0.00 in   Overcast
6:53 PM 39.0 °F 34.8 °F 19.9 °F 46% 29.85 in 10.0 mi Variable 5.8 mph - N/A   Partly Cloudy
7:53 PM 39.0 °F 34.0 °F 16.0 °F 39% 29.86 in 10.0 mi West 6.9 mph - N/A   Clear
8:53 PM 37.4 °F 30.3 °F 6.8 °F 28% 29.87 in 10.0 mi West 10.4 mph 16.1 mph N/A   Clear
9:53 PM 35.1 °F 29.3 °F 8.1 °F 33% 29.91 in 10.0 mi West 6.9 mph - N/A   Partly Cloudy
10:53 PM 34.0 °F 27.2 °F 9.0 °F 35% 29.91 in 10.0 mi WNW 8.1 mph - N/A   Clear
11:53 PM 32.0 °F 27.5 °F 9.0 °F 38% 29.92 in 10.0 mi WNW 4.6 mph - N/A   Clear